KC3ROS Weather Reports


Display with metric or nautical units.
time (UTC)temp
F
wind
direction
speed
MPH
gust
MPH
rain 1hr
in
rain 24hr
in
rain mn
in
humidity
%
barometer
mb
20260505034653 62 207 1.0 6.0 0.00 0.00 0.00 69 1006.2
20260505034151 62 89 0.0 5.0 0.00 0.00 0.00 70 1006.2
20260505033647 62 208 2.0 3.0 0.00 0.00 0.00 70 1006.2
20260505033145 62 99 0.0 3.0 0.00 0.00 0.00 69 1006.4
20260505032643 62 215 4.0 5.0 0.00 0.00 0.00 69 1006.3
20260505032139 62 124 0.0 3.0 0.00 0.00 0.00 69 1006.4
20260505031636 62 112 1.0 4.0 0.00 0.00 0.00 68 1006.4
20260505031132 63 146 2.0 4.0 0.00 0.00 0.00 68 1006.3
20260505030630 63 150 1.0 4.0 0.00 0.00 0.00 68 1006.4
20260505030125 63 114 1.0 5.0 0.00 0.00 0.00 68 1006.5
20260505025621 63 215 0.0 2.0 0.00 0.00 0.00 68 1006.4
20260505025120 63 160 0.0 5.0 0.00 0.00 0.00 67 1006.3
20260505024617 63 106 2.0 4.0 0.00 0.00 0.00 67 1006.5
20260505024114 64 214 3.0 6.0 0.00 0.00 0.00 66 1006.5
20260505023612 64 205 3.0 7.0 0.00 0.00 0.00 65 1006.5
20260505023109 64 91 3.0 11.0 0.00 0.00 0.00 66 1006.6
20260505022606 64 132 1.0 7.0 0.00 0.00 0.00 65 1006.8
20260505022103 64 212 3.0 11.0 0.00 0.00 0.00 65 1006.6
20260505021600 64 93 2.0 7.0 0.00 0.00 0.00 65 1006.5
20260505021057 64 198 3.0 11.0 0.00 0.00 0.00 65 1006.5
20260505020556 64 185 1.0 7.0 0.00 0.00 0.00 65 1006.6
20260505020054 64 125 3.0 6.0 0.00 0.00 0.00 65 1006.6
20260505015551 64 235 2.0 4.0 0.00 0.00 0.00 65 1006.6
20260505015047 64 172 1.0 8.0 0.00 0.00 0.00 65 1006.8
20260505014544 64 125 2.0 5.0 0.00 0.00 0.00 64 1006.6
20260505014041 65 194 1.0 7.0 0.00 0.00 0.00 64 1006.5
20260505013538 65 178 2.0 4.0 0.00 0.00 0.00 64 1006.5
20260505013036 65 89 0.0 7.0 0.00 0.00 0.00 63 1006.4
20260505012534 65 232 2.0 8.0 0.00 0.00 0.00 63 1006.2
20260505012031 65 172 0.0 7.0 0.00 0.00 0.00 63 1006.3
20260505011526 65 205 3.0 9.0 0.00 0.00 0.00 63 1006.4
20260505011023 65 149 1.0 4.0 0.00 0.00 0.00 63 1006.3
20260505010519 66 180 1.0 8.0 0.00 0.00 0.00 62 1006.3
20260505010016 66 168 1.0 9.0 0.00 0.00 0.00 62 1006.1
20260505005512 66 194 3.0 7.0 0.00 0.00 0.00 62 1006.0
20260505005010 66 180 2.0 10.0 0.00 0.00 0.00 62 1005.9
20260505004506 66 153 2.0 9.0 0.00 0.00 0.00 62 1005.7
20260505004003 66 119 1.0 6.0 0.00 0.00 0.00 62 1005.8
20260505003500 66 154 4.0 4.0 0.00 0.00 0.00 62 1005.6
20260505002957 66 223 2.0 7.0 0.00 0.00 0.00 62 1005.8
20260505002452 67 103 1.0 15.0 0.00 0.00 0.00 61 1005.4
20260505001951 67 195 2.0 6.0 0.00 0.00 0.00 61 1005.4
20260505001448 66 214 4.0 10.0 0.00 0.00 0.00 61 1005.8
20260505000945 67 104 0.0 8.0 0.00 0.00 0.00 61 1005.2
20260505000443 66 233 7.0 15.0 0.00 0.00 0.00 61 1005.6
20260504235940 66 217 1.0 3.0 0.00 0.00 0.00 63 1005.3
20260504235437 66 119 1.0 4.0 0.00 0.00 0.00 64 1005.6
20260504234933 67 145 0.0 6.0 0.00 0.00 0.00 63 1005.2
20260504234431 67 265 4.0 7.0 0.00 0.00 0.00 62 1005.6
20260504233927 67 245 2.0 7.0 0.00 0.00 0.00 63 1005.2
20260504233423 67 105 3.0 5.0 0.00 0.00 0.00 63 1005.6
20260504232920 67 195 3.0 9.0 0.00 0.00 0.00 64 1005.6
20260504232417 67 140 0.0 5.0 0.00 0.00 0.00 64 1005.7
20260504231914 67 102 0.0 3.0 0.00 0.00 0.00 69 1005.8
20260504231410 66 113 0.0 4.0 0.00 0.00 0.00 67 1005.7
20260504230907 66 122 4.0 6.0 0.00 0.00 0.00 67 1006.1
20260504230404 67 232 2.0 7.0 0.00 0.00 0.00 68 1006.1
20260504225903 68 202 7.0 8.0 0.00 0.00 0.00 59 1006.1
20260504225359 68 167 2.0 13.0 0.00 0.00 0.00 58 1006.0
20260504224857 68 228 2.0 7.0 0.00 0.00 0.00 59 1005.9
20260504224353 67 238 3.0 10.0 0.00 0.00 0.00 65 1006.0
20260504223850 67 165 3.0 7.0 0.00 0.00 0.00 61 1005.9
20260504223345 69 214 3.0 14.0 0.00 0.00 0.00 56 1006.0
20260504222842 69 227 3.0 7.0 0.00 0.00 0.00 57 1005.8
20260504222339 69 175 1.0 7.0 0.00 0.00 0.00 55 1005.8
20260504221837 69 110 3.0 9.0 0.00 0.00 0.00 55 1006.0
20260504221333 69 243 4.0 9.0 0.00 0.00 0.00 55 1006.0
20260504220831 69 255 8.0 15.0 0.00 0.00 0.00 54 1005.9
20260504220328 69 244 5.0 16.0 0.00 0.00 0.00 53 1005.9
20260504215825 70 242 6.0 11.0 0.00 0.00 0.00 53 1005.7
20260504215321 71 242 3.0 8.0 0.00 0.00 0.00 52 1005.8
20260504214817 71 204 2.0 12.0 0.00 0.00 0.00 51 1005.6
20260504214315 70 199 1.0 9.0 0.00 0.00 0.00 52 1005.3
20260504213811 72 192 2.0 11.0 0.00 0.00 0.00 50 1005.6
20260504213307 72 222 9.0 10.0 0.00 0.00 0.00 49 1005.7
20260504212805 71 253 3.0 15.0 0.00 0.00 0.00 50 1005.7
20260504212300 72 215 5.0 13.0 0.00 0.00 0.00 48 1005.6
20260504211758 72 201 5.0 10.0 0.00 0.00 0.00 49 1005.8
20260504211254 70 217 4.0 11.0 0.00 0.00 0.00 51 1006.0
20260504210752 71 234 4.0 15.0 0.00 0.00 0.00 51 1005.8
20260504210249 70 218 6.0 12.0 0.00 0.00 0.00 49 1005.8
20260504205746 72 229 6.0 9.0 0.00 0.00 0.00 49 1005.7
20260504205243 72 225 4.0 7.0 0.00 0.00 0.00 49 1005.8
20260504204741 72 158 4.0 17.0 0.00 0.00 0.00 48 1005.6
20260504204239 73 229 8.0 13.0 0.00 0.00 0.00 46 1005.6
20260504203739 72 118 1.0 8.0 0.00 0.00 0.00 50 1005.8
20260504203235 69 263 1.0 12.0 0.00 0.00 0.00 51 1005.4
20260504202735 71 183 1.0 8.0 0.00 0.00 0.00 50 1005.8
20260504202233 70 221 3.0 9.0 0.00 0.00 0.00 50 1005.8
20260504201730 72 245 4.0 9.0 0.00 0.00 0.00 50 1005.8
20260504201227 71 202 1.0 9.0 0.00 0.00 0.00 49 1005.9
20260504200725 71 209 3.0 10.0 0.00 0.00 0.00 51 1005.9
20260504200220 71 113 2.0 6.0 0.00 0.00 0.00 51 1006.1
20260504195717 72 267 4.0 13.0 0.00 0.00 0.00 51 1006.0
20260504195213 73 173 2.0 19.0 0.00 0.00 0.00 47 1006.1
20260504194710 73 213 7.0 15.0 0.00 0.00 0.00 47 1006.1
20260504194206 72 239 3.0 5.0 0.00 0.00 0.00 50 1005.9
20260504193703 73 173 2.0 9.0 0.00 0.00 0.00 47 1006.2
20260504193201 71 271 3.0 10.0 0.00 0.00 0.00 50 1006.2
20260504192659 73 264 3.0 14.0 0.00 0.00 0.00 52 1006.1
20260504192156 73 231 4.0 10.0 0.00 0.00 0.00 49 1006.2
20260504191655 71 224 4.0 13.0 0.00 0.00 0.00 49 1006.2
20260504191150 69 217 2.0 5.0 0.00 0.00 0.00 51 1006.5
20260504190646 69 284 1.0 11.0 0.00 0.00 0.00 53 1006.5
20260504190138 72 260 5.0 8.0 0.00 0.00 0.00 50 1006.5
20260504185634 72 193 2.0 8.0 0.00 0.00 0.00 47 1006.6
20260504185131 70 239 6.0 8.0 0.00 0.00 0.00 51 1006.6
20260504184626 70 203 3.0 11.0 0.00 0.00 0.00 49 1006.6
20260504184122 71 211 3.0 10.0 0.00 0.00 0.00 49 1006.9
20260504183619 71 223 4.0 11.0 0.00 0.00 0.00 48 1006.9
20260504183117 70 225 0.0 19.0 0.00 0.00 0.00 50 1006.9
20260504182614 71 224 4.0 6.0 0.00 0.00 0.00 51 1006.8
20260504182112 71 215 5.0 8.0 0.00 0.00 0.00 49 1006.8
20260504181609 70 116 3.0 9.0 0.00 0.00 0.00 51 1007.0
20260504181106 69 186 8.0 15.0 0.00 0.00 0.00 51 1007.1
20260504180605 69 219 10.0 12.0 0.00 0.00 0.00 50 1007.1
20260504180104 69 168 2.0 6.0 0.00 0.00 0.00 52 1007.0
20260504175600 69 149 4.0 12.0 0.00 0.00 0.00 51 1007.3
20260504175057 69 282 3.0 10.0 0.00 0.00 0.00 51 1007.2
20260504174555 70 168 5.0 9.0 0.00 0.00 0.00 49 1007.2
20260504174051 69 217 6.0 6.0 0.00 0.00 0.00 52 1007.1
20260504173548 69 221 3.0 8.0 0.00 0.00 0.00 53 1007.2
20260504173046 69 236 3.0 9.0 0.00 0.00 0.00 50 1007.3
20260504172542 68 238 2.0 11.0 0.00 0.00 0.00 52 1007.5
20260504172039 68 235 3.0 8.0 0.00 0.00 0.00 49 1007.5
20260504171536 67 297 0.0 13.0 0.00 0.00 0.00 51 1007.5
20260504171033 68 269 2.0 7.0 0.00 0.00 0.00 52 1007.5
20260504170528 68 290 2.0 11.0 0.00 0.00 0.00 53 1007.9
20260504150912 62 195 2.0 11.0 0.00 0.00 0.00 52 1009.2
20260504150409 62 236 4.0 12.0 0.00 0.00 0.00 51 1009.1
20260504140835 59 219 4.0 5.0 0.00 0.00 0.00 54 1008.9
20260504140331 59 230 7.0 11.0 0.00 0.00 0.00 54 1009.1
20260504130800 57 205 2.0 7.0 0.00 0.00 0.00 56 1009.5
20260504130256 56 155 0.0 15.0 0.00 0.00 0.00 56 1009.6
20260504120220 53 129 3.0 9.0 0.00 0.00 0.00 62 1009.2
20260504110647 50 196 3.0 6.0 0.00 0.00 0.00 64 1009.2
20260504110143 50 149 2.0 5.0 0.00 0.00 0.00 64 1009.3
20260504100609 50 205 3.0 12.0 0.00 0.00 0.00 61 1009.5
20260504100108 49 141 2.0 3.0 0.00 0.00 0.00 63 1009.5
20260504082003 48 212 1.0 4.0 0.00 0.00 0.00 64 1010.4
20260504081501 48 131 0.0 4.0 0.00 0.00 0.00 64 1010.5
20260504080955 48 131 1.0 4.0 0.00 0.00 0.00 64 1010.3
20260504080452 48 188 1.0 3.0 0.00 0.00 0.00 64 1010.4
20260504050259 48 159 1.0 2.0 0.00 0.00 0.00 59 1012.1
20260504045756 48 114 0.0 2.0 0.00 0.00 0.00 60 1012.1
20260504045251 48 147 0.0 2.0 0.00 0.00 0.00 59 1012.1
20260504044749 48 177 0.0 2.0 0.00 0.00 0.00 60 1012.1
20260504044246 47 117 0.0 2.0 0.00 0.00 0.00 61 1012.0
20260504043743 47 128 0.0 2.0 0.00 0.00 0.00 61 1012.1
20260504043239 47 139 1.0 3.0 0.00 0.00 0.00 61 1012.1
20260504042732 47 244 0.0 2.0 0.00 0.00 0.00 61 1012.1
20260504042228 48 164 0.0 3.0 0.00 0.00 0.00 61 1012.1
20260504041724 48 285 3.0 6.0 0.00 0.00 0.00 59 1012.3
20260504041220 48 213 4.0 5.0 0.00 0.00 0.00 59 1012.4
20260504040717 48 165 2.0 4.0 0.00 0.00 0.00 59 1012.2
20260504040214 49 228 2.0 5.0 0.00 0.00 0.00 57 1012.3
20260504035710 48 233 3.0 5.0 0.00 0.00 0.00 57 1012.2
20260504035208 48 238 2.0 6.0 0.00 0.00 0.00 58 1012.0